Back to catalog

STARLINK-11086

AliveCommunicationsVLEO
NORAD 60043·PAYLOAD·🇺🇸 United States

Launched Jun 8, 2024 from Vandenberg Space Force Base

Loading…

Next Passes (next 24 hours)

TLE

FreshSource: CelesTrak SupGP

Epoch: Sep 14, 2026, 21:06 UTC

1 60043C 24112F   26257.87965278  .00078575  00000+0  64748-3 0  2577
2 60043  53.1572  53.6765 0001080  78.6722 324.4870 15.69661687    15

Track STARLINK-11086 in real time with AllMySat

Download on the App Store